(323629) = 2004 VW80

Discovered at Kitt Peak on 2004-11-04 by Spacewatch.

Orbit

Orbit type: Main Belt

Note: WebGL enabled browser required.

epoch2023-09-13.0
epoch JD2460200.5
perihelion date2022-07-15.58953
perihelion JD2459776.08953
argument of perihelion (°)104.81177
ascending node (°)45.42766
inclination (°)11.59123
eccentricity0.0522412
perihelion distance (AU)2.9164896
Tisserand w.r.t. Jupiter3.2
ΔV w.r.t. Earth (km/sec)11.2
semimajor axis (AU)3.0772489
mean anomaly (°)77.49006
mean daily motion (°/day)0.18258280
aphelion distance (AU)3.238
period (years)5.4
P-vector [x]-0.85406207
P-vector [y]0.36545267
P-vector [z]0.37016527
Q-vector [x]-0.50009062
Q-vector [y]-0.77268357
Q-vector [z]-0.39098525
absolute magnitude15.37
phase slope0.15
uncertainty0
referenceMPO 779306
observations used549
oppositions13
arc length (days)6849
first opposition used2004
last opposition used2023
residual rms (arc-secs)0.68
perturbers coarse indicatorM-v
perturbers precise indicator003Ek
first observation date used2004-10-07.0
last observation date used2023-07-09.0
computer nameMPCLINUX
JD of orbit computation2456966.748255
perihelion JD uncertainty (days)5.5583E-04
argument of perihelion uncertainty (°)9.8464E-05
ascending node uncertainty (°)2.8672E-05
inclination uncertainty (°)7.5661E-06
eccentricity uncertainty 1.0202E-07
perihelion distance uncertainty (AU)2.7887E-07
Minimum Orbit Intersection Distances (in AU)
for orbit epoch: 2460200.5, reference: E2023-VP5
Mercury2.54048
Venus2.20645
Earth1.95058
Mars1.29791
Jupiter1.79188
Saturn6.05395
Uranus15.5618
Neptune26.6707

Observations

570 total observations over interval: 2004 10 07.46841 – 2023 07 09.186617
These data are available for download (format description).

Date (UT) J2000 RA J2000 Dec Magn Location Ref
2004 10 07.46841 03 21 37.34 +17 05 49.3 19.5   644 – Palomar Mountain/NEAT MPS 122735
2004 10 07.48169 03 21 36.95 +17 05 50.3 19.4   644 – Palomar Mountain/NEAT MPS 122735
2004 10 07.49220 03 21 36.62 +17 05 50.9 19.7   644 – Palomar Mountain/NEAT MPS 122735
2004 10 13.41854 03 18 18.04 +17 10 02.2 20.3 V 691 – Steward Observatory, Kitt Peak-Spacewatch MPS 122735
2004 10 13.44612 03 18 16.98 +17 10 03.2 20.4 V 691 – Steward Observatory, Kitt Peak-Spacewatch MPS 122735
2004 10 13.47283 03 18 15.95 +17 10 03.8 20.7 V 691 – Steward Observatory, Kitt Peak-Spacewatch MPS 122735
2004 10 23.19094 03 11 21.51 +17 12 39.4 19.9 V 691 – Steward Observatory, Kitt Peak-Spacewatch MPS 122735
2004 10 23.22273 03 11 19.94 +17 12 39.9 19.9 V 691 – Steward Observatory, Kitt Peak-Spacewatch MPS 122735
2004 10 23.25181 03 11 18.54 +17 12 39.8 20.0 V 691 – Steward Observatory, Kitt Peak-Spacewatch MPS 122735
2004 11 04.14600 03 01 05.81 +17 09 44.1 19.6 V 691 – Steward Observatory, Kitt Peak-Spacewatch MPS 122735
2004 11 04.17236 03 01 04.36 +17 09 43.4 19.5 V 691 – Steward Observatory, Kitt Peak-Spacewatch MPS 122735
2004 11 04.19832 03 01 02.92 +17 09 42.7 19.6 V 691 – Steward Observatory, Kitt Peak-Spacewatch MPS 122735
2004 11 04.35506 03 00 54.12 +17 09 38.5 18.5 R 703 – Catalina Sky Survey MPS 122735
2004 11 04.36473 03 00 53.69 +17 09 38.9 18.7 R 703 – Catalina Sky Survey MPS 122735
2004 11 04.37446 03 00 53.06 +17 09 37.6 20.0 R 703 – Catalina Sky Survey MPS 122735
2004 11 04.38429 03 00 52.56 +17 09 37.9 18.8 R 703 – Catalina Sky Survey MPS 122735
2004 11 10.39181 02 55 22.62 +17 06 18.6 19.4 V 291 – LPL/Spacewatch II MPS 122735
2004 11 10.39862 02 55 22.23 +17 06 18.3 19.3 V 291 – LPL/Spacewatch II MPS 122735
2004 11 10.40320 02 55 21.98 +17 06 18.1 19.3 V 291 – LPL/Spacewatch II MPS 122735
2004 12 02.21453 02 37 16.52 +16 54 50.3 19.6   644 – Palomar Mountain/NEAT MPS 122735
2004 12 02.23641 02 37 15.61 +16 54 49.9 19.4   644 – Palomar Mountain/NEAT MPS 122735
2004 12 02.25794 02 37 14.68 +16 54 49.9 19.7   644 – Palomar Mountain/NEAT MPS 122735
2004 12 12.06523 02 31 33.92 +16 55 32.7 20.2 V 691 – Steward Observatory, Kitt Peak-Spacewatch MPS 122735
2004 12 12.08305 02 31 33.39 +16 55 33.3 20.0 V 691 – Steward Observatory, Kitt Peak-Spacewatch MPS 122735
2004 12 12.09892 02 31 32.92 +16 55 33.9 20.0 V 691 – Steward Observatory, Kitt Peak-Spacewatch MPS 122735
2006 01 05.35917 09 41 34.54 +31 03 29.0 19.6 V 703 – Catalina Sky Survey MPS 158998
2006 01 05.36735 09 41 34.29 +31 03 33.6 20.1 V 703 – Catalina Sky Survey MPS 158998
2006 01 05.37549 09 41 34.08 +31 03 35.9 19.7 V 703 – Catalina Sky Survey MPS 158998
2006 01 05.38360 09 41 33.68 +31 03 39.3 20.3 V 703 – Catalina Sky Survey MPS 158998
2006 01 07.35333 09 40 36.98 +31 16 14.8 19.6   704 – Lincoln Laboratory ETS, New Mexico MPS 158998
2006 01 07.36626 09 40 36.58 +31 16 19.8 19.9   704 – Lincoln Laboratory ETS, New Mexico MPS 158998
2006 01 07.37931 09 40 36.18 +31 16 24.3 20.0   704 – Lincoln Laboratory ETS, New Mexico MPS 158998
2006 01 07.39230 09 40 35.74 +31 16 29.7 20.0   704 – Lincoln Laboratory ETS, New Mexico MPS 158998
2006 01 07.40518 09 40 35.39 +31 16 36.4 20.4   704 – Lincoln Laboratory ETS, New Mexico MPS 158998
2006 01 22.30436 09 30 28.80 +32 48 30.8 19.3 V 703 – Catalina Sky Survey MPS 160458
2006 01 22.31250 09 30 28.44 +32 48 33.9 19.4 V 703 – Catalina Sky Survey MPS 160458
2006 01 22.32068 09 30 27.97 +32 48 37.0 19.6 V 703 – Catalina Sky Survey MPS 160458
2006 01 22.32896 09 30 27.57 +32 48 38.9 19.6 V 703 – Catalina Sky Survey MPS 160458
2006 01 24.33204 09 28 46.28 +32 59 48.4 18.9 R 699 – Lowell Observatory-LONEOS MPS 161821
2006 01 24.35489 09 28 45.09 +32 59 55.9   699 – Lowell Observatory-LONEOS MPS 161821
2006 01 24.37775 09 28 43.75 +33 00 02.0   699 – Lowell Observatory-LONEOS MPS 161821
2006 01 24.40058 09 28 42.65 +33 00 10.7   699 – Lowell Observatory-LONEOS MPS 161821
2006 01 27.26442 09 26 11.83 +33 15 14.9 19.2 V 703 – Catalina Sky Survey MPS 161821
2006 01 27.27147 09 26 11.43 +33 15 17.5 19.7 V 703 – Catalina Sky Survey MPS 161821
2006 01 27.27852 09 26 11.14 +33 15 19.9 19.4 V 703 – Catalina Sky Survey MPS 161821
2006 01 27.28556 09 26 10.68 +33 15 21.7 20.0 V 703 – Catalina Sky Survey MPS 161821
2006 02 22.15984 09 02 32.28 +34 26 44.3 19.0 V 703 – Catalina Sky Survey MPS 163846
2006 02 22.16798 09 02 31.66 +34 26 45.4 20.2 V 703 – Catalina Sky Survey MPS 163846
2006 02 22.17453 09 02 31.30 +34 26 45.8 19.7 V 703 – Catalina Sky Survey MPS 163846
2006 02 22.18108 09 02 30.94 +34 26 45.3 19.8 V 703 – Catalina Sky Survey MPS 163846
2007 04 22.27115 14 46 25.42 -14 04 53.6 20.0 V 691 – Steward Observatory, Kitt Peak-Spacewatch MPS 208086
2007 04 22.29079 14 46 24.39 -14 04 53.1 19.9 V 691 – Steward Observatory, Kitt Peak-Spacewatch MPS 208086
2007 04 22.30993 14 46 23.39 -14 04 52.6 19.8 V 691 – Steward Observatory, Kitt Peak-Spacewatch MPS 208086
2007 05 09.34676 14 31 31.58 -13 55 19.5 19.2 V G96 – Mt. Lemmon Survey MPS 208939
2007 05 09.35233 14 31 31.29 -13 55 19.2 19.3 V G96 – Mt. Lemmon Survey MPS 208939
2007 05 09.35785 14 31 30.97 -13 55 19.0 19.2 V G96 – Mt. Lemmon Survey MPS 208939
2007 05 09.36341 14 31 30.72 -13 55 18.8 19.1 V G96 – Mt. Lemmon Survey MPS 208939
2009 10 16.26522 01 04 38.92 -01 56 09.3 19.7 V 703 – Catalina Sky Survey MPS 300657
2009 10 16.27315 01 04 38.53 -01 56 11.7 19.4 V 703 – Catalina Sky Survey MPS 300657
2009 10 16.28105 01 04 38.17 -01 56 11.5 19.8 V 703 – Catalina Sky Survey MPS 300657
2012 03 13.38477 12 54 09.07 +06 37 15.3 19.4 V 703 – Catalina Sky Survey MPS 416125
2012 03 13.39642 12 54 08.67 +06 37 16.9 19.1 V 703 – Catalina Sky Survey MPS 416125
2012 03 13.40228 12 54 08.28 +06 37 17.4 19.1 V 703 – Catalina Sky Survey MPS 416125
2012 03 18.94168 12 49 57.06 +06 54 58.8 19.7 V A50 – Andrushivka Astronomical Observatory MPS 418451
2012 03 18.96441 12 49 56.00 +06 55 03.5 19.9 V A50 – Andrushivka Astronomical Observatory MPS 418451
2012 03 18.98788 12 49 54.81 +06 55 08.2 19.7 V A50 – Andrushivka Astronomical Observatory MPS 418451
2012 03 21.27340 12 48 05.28 +07 02 04.6 18.7   704 – Lincoln Laboratory ETS, New Mexico MPS 417214
2012 03 21.28420 12 48 04.73 +07 02 06.7 19.5   704 – Lincoln Laboratory ETS, New Mexico MPS 417214
2012 03 21.28472 12 48 04.68 +07 02 04.6 19.6 V 703 – Catalina Sky Survey MPS 417214
2012 03 21.29502 12 48 04.10 +07 02 06.5 19.7 V 703 – Catalina Sky Survey MPS 417214
2012 03 21.29515 12 48 04.24 +07 02 07.1 19.7   704 – Lincoln Laboratory ETS, New Mexico MPS 417214
2012 03 21.30538 12 48 03.60 +07 02 08.9 19.4 V 703 – Catalina Sky Survey MPS 417214
2012 03 21.30588 12 48 03.64 +07 02 09.6 19.6   704 – Lincoln Laboratory ETS, New Mexico MPS 417214
2012 03 21.31567 12 48 03.09 +07 02 10.2 19.8 V 703 – Catalina Sky Survey MPS 417214
2012 03 21.31674 12 48 03.03 +07 02 11.5 19.6   704 – Lincoln Laboratory ETS, New Mexico MPS 417214
2012 03 25.33872 12 44 43.87 +07 13 29.9 19.2 V G96 – Mt. Lemmon Survey MPS 418451
2012 03 25.34744 12 44 43.40 +07 13 31.1 19.3 V G96 – Mt. Lemmon Survey MPS 418451
2012 03 25.35613 12 44 42.97 +07 13 32.5 19.2 V G96 – Mt. Lemmon Survey MPS 418451
2012 03 25.36484 12 44 42.54 +07 13 33.9 19.3 V G96 – Mt. Lemmon Survey MPS 418451
2012 04 11.25396 12 30 38.91 +07 43 04.2 18.5 V 703 – Catalina Sky Survey MPS 420781
2012 04 11.25964 12 30 38.59 +07 43 05.3 18.7 V 703 – Catalina Sky Survey MPS 420781
2012 04 11.26532 12 30 38.37 +07 43 05.1 19.1 V 703 – Catalina Sky Survey MPS 420781
2012 04 11.27103 12 30 38.05 +07 43 05.8 19.6 V 703 – Catalina Sky Survey MPS 420781
2012 04 12.33859 12 29 48.125 +07 43 45.13 19.6 w F51 – Pan-STARRS 1, Haleakala MPS 420781
2012 04 12.35253 12 29 47.453 +07 43 45.58 19.5 w F51 – Pan-STARRS 1, Haleakala MPS 420781
2012 04 12.36647 12 29 46.779 +07 43 46.00 19.6 w F51 – Pan-STARRS 1, Haleakala MPS 420781
2012 04 12.38049 12 29 46.104 +07 43 46.43 19.5 w F51 – Pan-STARRS 1, Haleakala MPS 420781
2014 08 28.50137 23 41 03.453 -18 04 33.40 20.2 w F51 – Pan-STARRS 1, Haleakala MPS 529583
2014 08 28.51207 23 41 02.966 -18 04 36.10 20.1 w F51 – Pan-STARRS 1, Haleakala MPS 529583
